CW9873 Weather Reports


Display with metric or nautical units.
time (UTC)temp
F
wind
direction
speed
MPH
gust
MPH
rain 1hr
in
rain 24hr
in
rain mn
in
humidity
%
barometer
mb
20260507051540 55 240 0.0 2.0 0.00 0.21 0.00 93 1006.4
20260507051040 55 251 1.0 3.0 0.00 0.21 0.00 93 1006.3
20260507050539 55 224 1.0 3.0 0.00 0.21 0.00 93 1006.5
20260507050034 55 215 1.0 4.0 0.00 0.21 0.00 93 1006.5
20260507045531 55 206 1.0 4.0 0.00 0.21 0.00 93 1006.6
20260507045252 55 223 1.0 4.0 0.00 0.21 0.00 93 1006.7
20260507044530 55 182 1.0 3.0 0.00 0.21 0.00 93 1006.6
20260507044027 55 151 1.0 4.0 0.00 0.21 0.00 93 1006.6
20260507043525 55 278 1.0 5.0 0.00 0.21 0.00 93 1006.5
20260507043025 55 186 2.0 5.0 0.00 0.21 0.00 93 1006.4
20260507042526 55 276 1.0 4.0 0.00 0.21 0.00 93 1006.5
20260507042024 55 229 2.0 6.0 0.00 0.21 0.00 93 1006.5
20260507041523 55 201 2.0 6.0 0.00 0.21 0.00 92 1006.6
20260507041252 55 180 2.0 6.0 0.00 0.21 0.00 92 1006.4
20260507040524 55 188 2.0 7.0 0.00 0.21 0.00 92 1006.5
20260507040022 55 209 1.0 7.0 0.00 0.21 0.00 92 1006.6
20260507035519 55 197 2.0 7.0 0.00 0.21 0.21 92 1006.6
20260507035245 55 267 2.0 7.0 0.00 0.21 0.21 92 1006.8
20260507034516 55 276 2.0 7.0 0.00 0.21 0.21 92 1006.8
20260507034014 55 220 1.0 7.0 0.00 0.21 0.21 92 1006.6
20260507033514 55 198 1.0 4.0 0.00 0.21 0.21 92 1006.7
20260507033015 55 184 1.0 4.0 0.00 0.21 0.21 92 1006.7
20260507032513 55 188 1.0 4.0 0.00 0.21 0.21 92 1006.8
20260507032014 55 194 1.0 8.0 0.00 0.21 0.21 93 1006.7
20260507031515 55 240 2.0 8.0 0.00 0.21 0.21 92 1006.8
20260507031005 55 212 3.0 7.0 0.00 0.21 0.21 92 1006.9
20260507030507 55 216 2.0 7.0 0.00 0.21 0.21 92 1006.7
20260507030230 55 202 2.0 6.0 0.00 0.21 0.21 92 1006.7
20260507025506 55 189 3.0 10.0 0.00 0.21 0.21 92 1006.6
20260507025005 55 185 3.0 10.0 0.00 0.21 0.21 92 1006.7
20260507024504 55 208 2.0 7.0 0.00 0.21 0.21 92 1006.8
20260507024224 55 190 3.0 6.0 0.00 0.21 0.21 92 1006.8
20260507023502 55 197 3.0 7.0 0.00 0.21 0.21 92 1007.0
20260507023001 55 180 3.0 9.0 0.00 0.21 0.21 92 1007.0
20260507022501 55 265 3.0 9.0 0.00 0.21 0.21 92 1007.0
20260507022229 55 239 3.0 7.0 0.00 0.21 0.21 92 1007.0
20260507021733 55 210 3.0 7.0 0.00 0.21 0.21 92 1007.1
20260507021001 55 227 3.0 10.0 0.00 0.21 0.21 92 1007.0
20260507020501 55 204 3.0 10.0 0.00 0.21 0.21 92 1007.1
20260507020227 55 232 3.0 8.0 0.00 0.21 0.21 92 1006.9
20260507015501 55 227 2.0 7.0 0.00 0.21 0.21 92 1006.9
20260507015001 55 223 2.0 8.0 0.00 0.21 0.21 92 1006.9
20260507014503 55 227 3.0 8.0 0.00 0.21 0.21 92 1006.9
20260507014001 55 203 3.0 7.0 0.00 0.21 0.21 92 1007.1
20260507013502 55 201 3.0 9.0 0.00 0.21 0.21 92 1007.2
20260507012959 55 172 3.0 9.0 0.00 0.21 0.21 92 1007.2
20260507012503 55 205 3.0 7.0 0.00 0.21 0.21 92 1007.3
20260507012002 55 190 2.0 5.0 0.00 0.21 0.21 92 1007.2
20260507011456 55 175 2.0 7.0 0.00 0.21 0.21 92 1007.3
20260507010956 55 264 3.0 9.0 0.00 0.21 0.21 92 1007.3
20260507010458 55 224 3.0 9.0 0.00 0.21 0.21 92 1007.5
20260507010226 55 177 3.0 10.0 0.00 0.21 0.21 92 1007.5
20260507005502 55 171 3.0 10.0 0.00 0.21 0.21 92 1007.5
20260507004958 55 217 2.0 8.0 0.00 0.21 0.21 92 1007.6
20260507004456 55 231 3.0 9.0 0.00 0.21 0.21 92 1007.6
20260507003955 55 198 3.0 9.0 0.00 0.21 0.21 92 1007.5
20260507003454 55 217 4.0 10.0 0.00 0.21 0.21 92 1007.5
20260507002953 55 222 4.0 10.0 0.00 0.21 0.21 92 1007.4
20260507002454 55 208 4.0 8.0 0.00 0.21 0.21 92 1007.3
20260507002225 55 207 4.0 8.0 0.00 0.21 0.21 92 1007.2
20260507001453 55 202 4.0 9.0 0.00 0.21 0.21 92 1007.3
20260507000954 55 190 4.0 10.0 0.01 0.21 0.21 92 1007.2
20260507000725 55 235 5.0 13.0 0.01 0.21 0.21 92 1007.2
20260506235952 55 165 5.0 13.0 0.01 0.21 0.21 92 1007.2
20260506235453 55 199 4.0 13.0 0.01 0.21 0.21 92 1007.3
20260506234949 55 234 4.0 12.0 0.01 0.21 0.21 92 1007.3
20260506234451 55 201 5.0 13.0 0.01 0.21 0.21 92 1007.3
20260506233949 55 217 5.0 14.0 0.02 0.21 0.21 92 1007.3
20260506233449 55 173 4.0 14.0 0.02 0.21 0.21 92 1007.2
20260506232948 55 211 5.0 14.0 0.02 0.21 0.21 92 1007.2
20260506232450 55 188 5.0 14.0 0.02 0.21 0.21 92 1007.2
20260506231947 55 251 5.0 11.0 0.04 0.21 0.21 92 1007.2
20260506231446 55 192 5.0 14.0 0.05 0.21 0.21 91 1007.2
20260506230946 55 217 6.0 16.0 0.05 0.20 0.20 92 1007.2
20260506230447 55 208 5.0 16.0 0.06 0.20 0.20 91 1007.2
20260506225946 55 213 5.0 13.0 0.07 0.20 0.20 91 1007.2
20260506225445 55 190 5.0 13.0 0.08 0.20 0.20 91 1007.2
20260506224944 55 227 5.0 17.0 0.09 0.20 0.20 91 1007.2
20260506224710 55 254 5.0 17.0 0.09 0.20 0.20 91 1007.0
20260506223943 55 190 4.0 14.0 0.09 0.19 0.19 91 1007.1
20260506223707 55 192 5.0 11.0 0.09 0.19 0.19 91 1006.9
20260506222941 55 175 6.0 9.0 0.10 0.19 0.19 91 1007.1
20260506222440 55 188 6.0 12.0 0.10 0.19 0.18 91 1007.1
20260506221940 55 210 5.0 12.0 0.08 0.17 0.17 91 1007.1
20260506221440 55 173 4.0 11.0 0.08 0.16 0.16 91 1007.1
20260506220941 55 248 5.0 14.0 0.07 0.15 0.15 91 1007.2
20260506220441 55 165 5.0 15.0 0.07 0.14 0.14 91 1007.2
20260506215941 55 227 5.0 16.0 0.06 0.13 0.13 91 1007.3
20260506215718 55 219 5.0 16.0 0.05 0.12 0.12 91 1007.3
20260506214942 55 192 5.0 15.0 0.04 0.11 0.11 91 1007.3
20260506214442 55 235 4.0 12.0 0.04 0.11 0.11 90 1007.5
20260506214211 55 240 5.0 15.0 0.03 0.10 0.10 90 1007.5
20260506213717 56 175 5.0 15.0 0.03 0.10 0.09 90 1007.6
20260506212936 56 207 6.0 14.0 0.03 0.09 0.09 90 1007.6
20260506212714 56 201 6.0 14.0 0.03 0.09 0.09 90 1007.6
20260506211934 56 270 5.0 14.0 0.03 0.09 0.09 90 1007.6
20260506211433 56 210 5.0 14.0 0.02 0.08 0.08 90 1007.8
20260506210934 56 186 5.0 12.0 0.02 0.08 0.08 90 1007.7
20260506210434 56 229 5.0 14.0 0.02 0.07 0.07 90 1007.8
20260506205437 56 175 7.0 17.0 0.02 0.07 0.07 90 1007.8
20260506204432 56 186 7.0 20.0 0.02 0.07 0.07 90 1008.0
20260506203930 56 240 6.0 20.0 0.02 0.07 0.07 89 1008.0
20260506203430 56 219 6.0 19.0 0.02 0.07 0.06 89 1008.1
20260506202932 56 220 5.0 19.0 0.02 0.06 0.06 89 1008.1
20260506202431 56 225 5.0 11.0 0.03 0.06 0.06 89 1008.1
20260506201929 56 154 5.0 17.0 0.04 0.06 0.06 89 1008.1
20260506201429 56 102 6.0 17.0 0.05 0.06 0.06 89 1008.2
20260506200929 57 244 5.0 15.0 0.06 0.06 0.06 89 1008.2
20260506200430 57 199 5.0 14.0 0.05 0.05 0.05 89 1008.2
20260506195931 57 182 6.0 20.0 0.05 0.05 0.05 89 1008.4
20260506195428 57 252 6.0 20.0 0.05 0.05 0.05 89 1008.2
20260506194925 57 227 6.0 15.0 0.05 0.05 0.05 89 1008.3
20260506194416 57 170 6.0 16.0 0.05 0.05 0.05 88 1008.4
20260506193914 57 160 5.0 16.0 0.05 0.05 0.05 89 1008.3
20260506193410 57 125 5.0 12.0 0.05 0.05 0.05 88 1008.4
20260506192923 57 219 6.0 19.0 0.04 0.04 0.04 88 1008.5
20260506192142 57 227 4.0 12.0 0.02 0.02 0.02 86 1008.6
20260506190913 58 196 5.0 14.0 0.00 0.00 0.00 85 1008.6
20260506190411 59 236 6.0 16.0 0.00 0.00 0.00 84 1008.9
20260506185410 60 147 7.0 16.0 0.00 0.00 0.00 82 1008.9
20260506185143 60 103 6.0 16.0 0.00 0.00 0.00 80 1008.9
20260506184410 60 219 6.0 15.0 0.00 0.00 0.00 80 1009.0
20260506184139 60 129 8.0 19.0 0.00 0.00 0.00 80 1009.0
20260506183412 61 212 7.0 19.0 0.00 0.00 0.00 80 1009.0
20260506182908 61 177 6.0 15.0 0.00 0.00 0.00 80 1009.0
20260506182410 61 168 7.0 15.0 0.00 0.00 0.00 79 1009.0
20260506182143 61 201 7.0 16.0 0.00 0.00 0.00 80 1009.2
20260506181409 62 188 7.0 18.0 0.00 0.00 0.00 79 1009.2
20260506181138 62 262 7.0 19.0 0.00 0.00 0.00 79 1009.4
20260506180408 62 200 8.0 24.0 0.00 0.00 0.00 79 1009.4
20260506175908 62 205 9.0 24.0 0.00 0.00 0.00 79 1009.3
20260506175408 62 165 7.0 17.0 0.00 0.00 0.00 79 1009.4
20260506174911 62 204 5.0 16.0 0.00 0.00 0.00 78 1009.4
20260506174408 62 149 6.0 21.0 0.00 0.00 0.00 78 1009.6
20260506173908 62 231 9.0 21.0 0.00 0.00 0.00 79 1009.7
20260506173409 62 229 9.0 20.0 0.00 0.00 0.00 78 1009.7
20260506172908 63 278 8.0 20.0 0.00 0.00 0.00 78 1009.8
20260506172410 63 205 8.0 20.0 0.00 0.00 0.00 77 1010.0
20260506171907 64 213 7.0 20.0 0.00 0.00 0.00 77 1010.2
20260506171409 64 196 7.0 23.0 0.00 0.00 0.00 77 1010.0
20260506170910 64 219 9.0 23.0 0.00 0.00 0.00 77 1009.9
20260506170409 64 188 8.0 22.0 0.00 0.00 0.00 76 1009.8
20260506165908 65 193 8.0 20.0 0.00 0.00 0.00 76 1009.9
20260506165410 64 151 9.0 20.0 0.00 0.00 0.00 77 1010.0
20260506164408 65 222 7.0 19.0 0.00 0.00 0.00 75 1010.1
20260506163908 64 171 7.0 19.0 0.00 0.00 0.00 77 1010.2
20260506163404 63 180 7.0 15.0 0.00 0.00 0.00 78 1010.4
20260506162906 63 242 6.0 21.0 0.00 0.00 0.00 78 1010.6
20260506162417 63 203 5.0 21.0 0.00 0.00 0.00 78 1010.4
20260506161905 63 233 6.0 13.0 0.00 0.00 0.00 78 1010.5
20260506161404 62 196 6.0 14.0 0.00 0.00 0.00 79 1010.7
20260506160904 62 209 5.0 18.0 0.00 0.00 0.00 78 1010.8
20260506160405 63 209 7.0 21.0 0.00 0.00 0.00 78 1010.7
20260506155902 63 113 6.0 21.0 0.00 0.00 0.00 77 1010.8
20260506155405 64 228 6.0 24.0 0.00 0.00 0.00 76 1011.0
20260506154408 65 196 7.0 21.0 0.00 0.00 0.00 74 1010.8
20260506153904 67 213 6.0 17.0 0.00 0.00 0.00 73 1010.7
20260506153403 67 205 5.0 16.0 0.00 0.00 0.00 72 1010.9
20260506152903 67 157 6.0 16.0 0.00 0.00 0.00 72 1010.9
20260506152402 66 138 7.0 16.0 0.00 0.00 0.00 74 1010.9
20260506151902 67 199 6.0 23.0 0.00 0.00 0.00 73 1010.9
20260506151401 67 205 7.0 23.0 0.00 0.00 0.00 74 1011.0
20260506150902 66 138 6.0 20.0 0.00 0.00 0.00 76 1011.0
20260506150400 66 206 6.0 17.0 0.00 0.00 0.00 74 1011.0
20260506145902 66 198 6.0 17.0 0.00 0.00 0.00 74 1011.1
20260506145401 65 207 6.0 22.0 0.00 0.00 0.00 76 1011.2
20260506144901 65 203 6.0 22.0 0.00 0.00 0.00 75 1011.2
20260506144405 65 222 5.0 20.0 0.00 0.00 0.00 75 1011.1
20260506144130 65 186 5.0 20.0 0.00 0.00 0.00 76 1010.9
20260506143402 65 228 5.0 18.0 0.00 0.00 0.00 76 1010.9
20260506142902 66 236 5.0 18.0 0.00 0.00 0.00 75 1011.0
20260506142402 65 240 6.0 20.0 0.00 0.00 0.00 76 1011.0
20260506141902 63 198 7.0 20.0 0.00 0.00 0.00 79 1011.2
20260506141401 63 244 5.0 16.0 0.00 0.00 0.00 77 1011.1
20260506140902 64 173 5.0 18.0 0.00 0.00 0.00 77 1011.1
20260506140358 64 173 7.0 18.0 0.00 0.00 0.00 78 1011.0
20260506140124 63 88 6.0 13.0 0.00 0.00 0.00 79 1010.8
20260506135357 63 199 5.0 13.0 0.00 0.00 0.00 78 1010.7
20260506135130 63 166 6.0 15.0 0.00 0.00 0.00 78 1010.7
20260506134357 64 218 6.0 16.0 0.00 0.00 0.00 78 1011.0
20260506134121 64 229 5.0 16.0 0.00 0.00 0.00 77 1011.1
20260506133627 65 215 5.0 17.0 0.00 0.00 0.00 76 1011.0
20260506132857 64 209 6.0 17.0 0.00 0.00 0.00 78 1011.1
20260506132357 64 211 5.0 13.0 0.00 0.00 0.00 79 1011.1
20260506131859 63 209 5.0 20.0 0.00 0.00 0.00 79 1011.2
20260506131356 62 207 5.0 20.0 0.00 0.00 0.00 80 1011.3
20260506130854 62 180 5.0 16.0 0.00 0.00 0.00 80 1011.3
20260506130353 61 232 6.0 16.0 0.00 0.00 0.00 81 1011.4
20260506125855 61 198 7.0 17.0 0.00 0.00 0.00 81 1011.3
20260506125354 60 202 5.0 17.0 0.00 0.00 0.00 81 1011.4
20260506124854 60 167 4.0 15.0 0.00 0.00 0.00 81 1011.3
20260506124354 61 160 4.0 13.0 0.00 0.00 0.00 82 1011.3
20260506123854 60 178 5.0 15.0 0.00 0.00 0.00 82 1011.3
20260506123352 60 232 6.0 15.0 0.00 0.00 0.00 83 1011.2
20260506123114 60 212 6.0 14.0 0.00 0.00 0.00 83 1011.3
20260506122614 60 177 6.0 15.0 0.00 0.00 0.00 83 1011.3
20260506121850 59 215 5.0 15.0 0.00 0.00 0.00 83 1011.4
20260506121349 59 286 4.0 15.0 0.00 0.00 0.00 84 1011.4
20260506120849 59 194 5.0 15.0 0.00 0.00 0.00 84 1011.4
20260506120349 59 234 6.0 15.0 0.00 0.00 0.00 84 1011.5
20260506115851 59 180 5.0 12.0 0.00 0.00 0.00 84 1011.5
20260506115356 58 202 4.0 12.0 0.00 0.00 0.00 84 1011.5
20260506114348 58 217 3.0 8.0 0.00 0.00 0.00 85 1011.6
20260506113847 58 207 4.0 14.0 0.00 0.00 0.00 85 1011.6
20260506113348 57 199 5.0 14.0 0.00 0.00 0.00 85 1011.7
20260506112847 57 195 4.0 11.0 0.00 0.00 0.00 86 1011.8
20260506112347 57 173 4.0 13.0 0.00 0.00 0.00 86 1011.7
20260506111847 57 187 4.0 13.0 0.00 0.00 0.00 86 1011.7
20260506111347 57 185 4.0 11.0 0.00 0.00 0.00 86 1011.8
20260506110847 57 168 4.0 12.0 0.00 0.00 0.00 86 1011.7
20260506110348 57 226 5.0 13.0 0.00 0.00 0.00 86 1011.7
20260506105848 57 186 5.0 16.0 0.00 0.00 0.00 86 1011.6
20260506105347 57 178 4.0 16.0 0.00 0.00 0.00 86 1011.6
20260506104847 57 178 4.0 16.0 0.00 0.00 0.00 86 1011.6
20260506104348 57 214 4.0 13.0 0.00 0.00 0.00 86 1011.6
20260506103846 57 197 4.0 13.0 0.00 0.00 0.00 86 1011.5
20260506103347 57 232 4.0 11.0 0.00 0.00 0.00 86 1011.5
20260506102847 57 224 4.0 12.0 0.00 0.00 0.00 86 1011.4
20260506102347 57 160 4.0 12.0 0.00 0.00 0.00 87 1011.4
20260506101842 57 225 4.0 13.0 0.00 0.00 0.00 86 1011.4
20260506101343 57 182 6.0 20.0 0.00 0.00 0.00 87 1011.3
20260506100345 57 229 6.0 16.0 0.00 0.00 0.00 87 1011.4
20260506095843 57 236 6.0 16.0 0.00 0.00 0.00 87 1011.3
20260506095342 57 204 5.0 15.0 0.00 0.00 0.00 87 1011.2
20260506094844 57 199 5.0 13.0 0.00 0.00 0.00 87 1011.2
20260506094343 57 191 5.0 13.0 0.00 0.00 0.00 87 1011.2
20260506093843 57 158 5.0 13.0 0.00 0.00 0.00 87 1011.3
20260506093336 57 178 5.0 14.0 0.00 0.00 0.00 87 1011.2
20260506092837 57 240 6.0 14.0 0.00 0.00 0.00 87 1011.3
20260506092337 57 198 5.0 14.0 0.00 0.00 0.00 87 1011.3
20260506091837 57 207 5.0 14.0 0.00 0.00 0.00 87 1011.4
20260506091337 57 221 5.0 17.0 0.00 0.00 0.00 87 1011.4
20260506090838 57 146 6.0 17.0 0.00 0.00 0.00 87 1011.4
20260506090337 57 173 6.0 15.0 0.00 0.00 0.00 87 1011.4
20260506085836 57 192 6.0 15.0 0.00 0.00 0.00 87 1011.4
20260506085335 57 207 7.0 23.0 0.00 0.00 0.00 87 1011.5
20260506084835 57 170 7.0 23.0 0.00 0.00 0.00 87 1011.5
20260506084334 57 178 6.0 14.0 0.00 0.00 0.00 87 1011.6
20260506083833 57 198 6.0 22.0 0.00 0.00 0.00 87 1011.6
20260506083332 57 164 6.0 22.0 0.00 0.00 0.00 87 1011.7
20260506082832 57 167 4.0 13.0 0.00 0.00 0.00 86 1011.7
20260506082332 57 190 4.0 11.0 0.00 0.00 0.00 86 1011.7
20260506081831 57 97 5.0 11.0 0.00 0.00 0.00 86 1011.7
20260506081334 57 227 6.0 16.0 0.00 0.00 0.00 86 1011.9
20260506080830 57 235 7.0 17.0 0.00 0.00 0.00 86 1011.8
20260506080330 57 235 7.0 19.0 0.00 0.00 0.00 86 1011.7
20260506080105 58 194 6.0 19.0 0.00 0.00 0.00 86 1011.8
20260506073329 58 204 7.0 18.0 0.00 0.00 0.00 85 1011.7
20260506072830 58 207 7.0 16.0 0.00 0.00 0.00 85 1011.8
20260506072330 58 194 6.0 16.0 0.00 0.00 0.00 85 1011.6
20260506071830 58 186 7.0 22.0 0.00 0.00 0.00 85 1011.6
20260506071329 58 197 8.0 22.0 0.00 0.00 0.00 85 1011.5
20260506070829 58 101 7.0 18.0 0.00 0.00 0.00 85 1011.6
20260506070326 58 220 7.0 20.0 0.00 0.00 0.00 85 1011.5
20260506062311 58 264 7.0 17.0 0.00 0.00 0.00 85 1011.5
20260506061820 58 197 7.0 17.0 0.00 0.00 0.00 84 1011.6
20260506061310 58 221 6.0 14.0 0.00 0.00 0.00 84 1011.6
20260506060810 58 184 6.0 20.0 0.00 0.00 0.00 84 1011.7
20260506060310 58 208 6.0 20.0 0.00 0.00 0.00 84 1011.7